Location: Unspecified
(0.0000°N, 0.0000°E)
Time: 20:56:36
(UTC+00:00)

COSMOS 2490 - Visible Passes

Search period start: 04 June 2023 00:00
Search period end: 14 June 2023 00:00
Orbit: 1477 x 1511 km, 82.5° (Epoch: 04 June)

Date Brightness Start Highest point End Pass type
(mag) Time Alt. Az. Time Alt. Az. Time Alt. Az.
04 Jun ? 03:58:36 10° N 04:07:18 64° E 04:16:02 10° SSE visible
05 Jun ? 03:10:49 10° NNE 03:18:08 29° E 03:25:25 10° SE visible
05 Jun ? 05:06:44 10° NNW 05:14:32 36° W 05:22:24 10° SSW visible
06 Jun ? 02:26:54 10° ENE 02:28:56 11° E 02:30:58 10° E visible
06 Jun ? 04:16:32 10° N 04:25:21 77° W 04:34:13 10° S visible
07 Jun ? 03:27:42 10° NNE 03:36:11 52° E 03:44:41 10° SSE visible
07 Jun ? 05:26:47 10° NW 05:32:37 20° W 05:38:28 10° SW visible
08 Jun ? 02:40:28 10° NE 02:47:01 23° E 02:53:31 10° SE visible
08 Jun ? 04:35:10 10° NNW 04:43:25 45° W 04:51:43 10° SSW visible
09 Jun ? 03:45:23 10° N 03:54:14 87° E 04:03:08 10° S visible
10 Jun ? 02:56:55 10° NNE 03:05:04 42° E 03:13:12 10° SSE visible
10 Jun ? 04:54:42 10° NW 05:01:28 25° W 05:08:19 10° SW visible
11 Jun ? 02:10:26 10° NE 02:15:53 18° E 02:21:19 10° SE visible
11 Jun ? 04:03:45 10° NNW 04:12:17 56° W 04:20:10 13° SSW visible
12 Jun ? 03:14:19 10° N 03:23:08 72° E 03:27:28 34° SSE visible
12 Jun ? 05:16:25 10° WNW 05:19:33 12° W 05:22:43 10° WSW visible
13 Jun ? 02:26:16 10° NNE 02:33:57 33° E 02:36:29 29° ESE visible
13 Jun ? 04:22:53 10° NW 04:30:21 32° W 04:32:16 29° WSW visible
